Redmond, OR

9:47 PM PST on January 19, 2018 (GMT -0800)
Roberts Field Airport

Weather History for KRDM - May, 2013

Change the Weather History Date:

Friday, May 17, 2013

  Actual Average Record
Temperature  
Mean Temperature 53 °F 52 °F  
Max Temperature 62 °F 68 °F 97 °F (2008)
Min Temperature 43 °F 36 °F 22 °F (1971)
Degree Days  
Heating Degree Days 12 13  
Month to date heating degree days 149 263  
Since 1 July heating degree days 5995 6334  
Cooling Degree Days 0 0  
Month to date cooling degree days 9 0  
Year to date cooling degree days 9 0  
Growing Degree Days 2 (Base 50)    
Moisture  
Dew Point 36 °F    
Average Humidity 61    
Maximum Humidity 86    
Minimum Humidity 36    
Precipitation  
Precipitation 0.03 in 0.04 in 0.56 in (1992)
Month to date precipitation 0.12 0.51  
Year to date precipitation 0.97 3.52  
Sea Level Pressure  
Sea Level Pressure 29.98 in    
Wind  
Wind Speed 6 mph (WNW)    
Max Wind Speed 20 mph    
Max Gust Speed 26 mph    
Visibility 10 miles    
Events Rain    
T = Trace of Precipitation, MM = Missing Value Source: NWS Daily Summary

Daily Weather History Graph

Daily Weather History Graph

Search for Another Location

Airport or City:

Trip Planner

Search our weather history database for the weather conditions in past years. The results will help you decide how hot, cold, wet, or windy it might be!

Date:

Astronomy

May. 17, 2013 Rise Set
Actual Time 5:35 AM PDT 8:27 PM PDT
Civil Twilight 5:01 AM PDT 9:01 PM PDT
Nautical Twilight 4:18 AM PDT 9:44 PM PDT
Astronomical Twilight 3:28 AM PDT 10:35 PM PDT
Moon 12:19 PM PDT (5/17) 1:16 AM PDT (5/17)
Length of Visible Light 15h 59m
Length of Day
14h 52m
Waxing Crescent, 46% of the Moon is Illuminated
May 17
Waxing Crescent
May 17
First Quarter
May 24
Full
May 31
Last Quarter
Jun 8
New

Hourly Weather History & Observations

Time (PDT) Temp. Windchill Dew Point Humidity Pressure Visibility Wind Dir Wind Speed Gust Speed Precip Events Conditions
12:56 AM 46.0 °F 44.8 °F 43.0 °F 89% 29.94 in 10.0 mi NW 3.5 mph - N/A   Overcast
1:56 AM 46.0 °F 44.8 °F 42.1 °F 86% 29.93 in 10.0 mi WNW 3.5 mph - N/A   Overcast
2:56 AM 45.0 °F 42.6 °F 39.9 °F 82% 29.93 in 10.0 mi NW 4.6 mph - N/A   Overcast
4:56 AM 45.0 °F 42.6 °F 39.0 °F 80% 29.95 in 10.0 mi West 4.6 mph - N/A   Overcast
5:56 AM 44.1 °F 40.1 °F 39.0 °F 82% 29.96 in 9.0 mi WSW 6.9 mph - 0.00 in Rain Light Rain
7:56 AM 45.0 °F 43.5 °F 41.0 °F 86% 29.98 in 10.0 mi SSW 3.5 mph - 0.00 in   Mostly Cloudy
8:56 AM 46.9 °F - 37.9 °F 71% 29.98 in 10.0 mi West 5.8 mph - N/A   Overcast
9:56 AM 52.0 °F - 39.0 °F 61% 29.96 in 10.0 mi Variable 3.5 mph - N/A   Mostly Cloudy
10:56 AM 52.0 °F - 37.0 °F 57% 29.96 in 10.0 mi Variable 3.5 mph - N/A   Mostly Cloudy
11:56 AM 55.0 °F - 37.0 °F 51% 29.96 in 10.0 mi WNW 6.9 mph - N/A   Mostly Cloudy
12:56 PM 55.9 °F - 35.1 °F 45% 29.95 in 10.0 mi Variable 6.9 mph - N/A   Mostly Cloudy
1:56 PM 57.0 °F - 34.0 °F 42% 29.94 in 10.0 mi NNW 10.4 mph - N/A   Mostly Cloudy
2:56 PM 61.0 °F - 34.0 °F 36% 29.94 in 10.0 mi NW 12.7 mph 23.0 mph N/A   Mostly Cloudy
3:56 PM 59.0 °F - 34.0 °F 39% 29.95 in 10.0 mi NW 15.0 mph 23.0 mph N/A   Overcast
4:56 PM 57.9 °F - 33.1 °F 39% 29.96 in 10.0 mi WNW 16.1 mph 23.0 mph N/A   Overcast
5:56 PM 57.0 °F - 33.1 °F 40% 29.97 in 10.0 mi NW 16.1 mph 26.5 mph N/A   Partly Cloudy
6:56 PM 54.0 °F - 33.1 °F 45% 29.99 in 10.0 mi WNW 15.0 mph 25.3 mph N/A   Mostly Cloudy
7:56 PM 52.0 °F - 34.0 °F 50% 30.01 in 10.0 mi NW 15.0 mph 21.9 mph N/A   Overcast
8:56 PM 50.0 °F - 34.0 °F 54% 30.03 in 10.0 mi NW 8.1 mph - N/A   Overcast
9:56 PM 48.0 °F - 35.1 °F 61% 30.05 in 10.0 mi NW 8.1 mph - N/A   Overcast
10:56 PM 45.0 °F - 35.1 °F 68% 30.06 in 10.0 mi Calm Calm - N/A   Clear
11:56 PM 36.0 °F - 30.9 °F 82% 30.08 in 10.0 mi Calm Calm - N/A   Clear